[[{"header":{"parameterUnit":"m.s-1","parameterCategory":1,"la1":30.2991,"la2":30.254,"lo1":-89.0895,"lo2":-89.0444,"dy":0.0017,"dx":0.0017,"nx":28,"ny":28,"refTime":"2025-11-21T03:00:00:Z","depth":0,"parameterNumber":2,"parameterNumberName":"U-component_of_WINDS"},"data":[0,0,0,0,0,0,0,0,0,0,0,0,0,0,0,0,0,0,0,0,0,0,0,0,0,0,0,0,0,0,0,0,0,0,0,0,0,0,0,0,0,0,0,0,0,0,0,0,0,0,0,0,0,0,0,0,0,0,-2.5566,-2.5565,0,-2.5543,-2.5543,-2.5543,-2.5505,-2.5504,-2.5503,-2.5503,-2.5479,-2.5479,-2.5479,0,0,0,0,0,0,0,0,0,0,0,0,0,-2.5576,-2.5576,-2.5566,-2.5565,-2.5565,-2.5543,-2.5543,-2.5543,-2.5505,-2.5504,-2.5503,-2.5502,-2.5479,-2.5479,-2.5479,0,0,0,0,0,0,0,0,0,0,0,0,0,-2.5565,-2.5576,-2.5566,-2.5544,-2.5541,-2.5543,-2.5543,-2.5542,-2.5505,-2.5504,-2.5503,-2.5502,-2.5479,-2.5479,-2.5479,-2.55,0,0,-2.5479,-2.5479,0,0,0,0,0,0,0,0,-2.5565,-2.5564,-2.5547,-2.5545,-2.5543,-2.5526,-2.5538,-2.5528,-2.5505,-2.5519,-2.5502,-2.5501,-2.5495,-2.5494,-2.5492,-2.5499,-2.5498,-2.5479,-2.5479,-2.5479,-2.5479,0,0,0,0,0,0,0,-2.5566,-2.5565,-2.5557,-2.5547,-2.5544,-2.5535,-2.5532,-2.5536,-2.5513,-2.5517,-2.5515,-2.5513,-2.5494,-2.5492,-2.5491,-2.5498,-2.5479,-2.5479,-2.5479,-2.5479,-2.5522,-2.5523,0,0,0,0,0,0,-2.557,-2.5566,-2.5557,-2.5556,-2.5552,-2.5536,-2.5532,-2.5532,-2.5513,-2.5509,-2.5513,-2.5511,-2.5492,-2.5491,-2.549,-2.5513,-2.5479,-2.5479,-2.5479,-2.552,-2.5522,-2.5523,0,0,0,0,0,0,-2.5571,-2.557,-2.5558,-2.556,-2.5558,-2.5537,-2.5537,-2.5532,-2.553,-2.551,-2.5506,-2.5516,-2.5492,-2.549,-2.5498,-2.5512,-2.5479,-2.5479,-2.5519,-2.5521,-2.5522,-2.556,0,0,0,0,0,0,-2.5571,-2.557,-2.5578,-2.5561,-2.5558,-2.5567,-2.5537,-2.5533,-2.5531,-2.5527,-2.5511,-2.5507,-2.5491,-2.5498,-2.5498,-2.5511,-2.5479,-2.5518,-2.552,-2.5522,-2.5558,-2.5563,-2.5568,0,0,0,0,0,-2.5572,-2.5589,-2.5578,-2.5578,-2.5567,-2.5568,-2.5566,-2.5547,-2.5532,-2.5539,-2.5527,-2.5508,-2.5511,-2.5499,-2.5499,-2.5512,-2.5517,-2.5519,-2.5522,-2.5555,-2.5562,-2.5567,0,0,0,0,0,0,-2.5608,-2.5587,-2.5574,-2.5587,-2.558,-2.5561,-2.557,-2.5554,-2.555,-2.5547,-2.5523,-2.552,-2.5531,-2.5523,-2.551,-2.5532,-2.5511,-2.5513,-2.5537,-2.5543,-2.5548,-2.5549,-2.5479,0,0,0,0,0,-2.5618,-2.562,-2.5601,-2.5614,-2.5611,-2.5592,-2.5591,-2.5577,-2.5568,-2.5564,-2.5552,-2.5544,-2.5543,-2.5543,-2.5541,-2.5557,-2.5553,-2.5566,-2.5571,-2.5575,-2.5577,-2.5585,-2.559,-2.5531,-2.5531,-2.5531,0,0,-2.5638,-2.5626,-2.5629,-2.5621,-2.5614,-2.5616,-2.5589,-2.5593,-2.5594,-2.5565,-2.5571,-2.5562,-2.5552,-2.5564,-2.5569,-2.5557,-2.5593,-2.5579,-2.5582,-2.5581,-2.5588,-2.5594,-2.5599,-2.5533,-2.5532,-2.5532,0,0,-2.5675,-2.5667,-2.5676,-2.567,-2.5659,-2.5646,-2.5648,-2.5633,-2.5626,-2.5632,-2.561,-2.5612,-2.5611,-2.5604,-2.5601,-2.5637,-2.5619,-2.5637,-2.5662,-2.567,-2.5675,-2.5678,-2.569,-2.5695,-2.5639,-2.564,-2.564,0,-2.57,-2.5703,-2.5683,-2.5689,-2.5686,-2.566,-2.567,-2.5664,-2.5653,-2.5652,-2.564,-2.5639,-2.563,-2.564,-2.5649,-2.5647,-2.5649,-2.5638,-2.5676,-2.5679,-2.5683,-2.5694,-2.5698,-2.5642,-2.5641,-2.5641,-2.5641,0,-2.5735,-2.5737,-2.5747,-2.5737,-2.5736,-2.5743,-2.5724,-2.5726,-2.5712,-2.5701,-2.5708,-2.5697,-2.5692,-2.5694,-2.568,-2.5702,-2.5695,-2.568,-2.5658,-2.5691,-2.5701,-2.5705,-2.5645,-2.5644,-2.5643,-2.5643,0,0,-2.5792,-2.5772,-2.5776,-2.5771,-2.5758,-2.576,-2.5767,-2.5762,-2.5763,-2.5757,-2.5762,-2.5762,-2.5748,-2.5744,-2.5731,-2.5738,-2.5766,-2.5721,-2.5721,-2.5729,-2.5788,-2.5798,-2.5804,-2.5755,-2.5756,-2.5757,-2.5788,0,-2.5825,-2.5835,-2.5818,-2.5831,-2.5833,-2.581,-2.5816,-2.5809,-2.5798,-2.5799,-2.5788,-2.5788,-2.577,-2.5767,-2.5773,-2.5761,-2.5777,-2.5759,-2.5758,-2.5758,-2.576,-2.5809,-2.582,-2.585,-2.5792,-2.5793,-2.5793,0,-2.5864,-2.586,-2.5874,-2.586,-2.5861,-2.5866,-2.5861,-2.5862,-2.5853,-2.5845,-2.5842,-2.5826,-2.5831,-2.5812,-2.5819,-2.5807,-2.5806,-2.58,-2.5801,-2.5799,-2.5776,-2.5806,-2.5859,-2.5863,-2.5799,-2.5799,-2.5799,0,-2.5903,-2.5901,-2.5909,-2.5906,-2.5891,-2.5895,-2.5889,-2.588,-2.5878,-2.5874,-2.5873,-2.587,-2.5868,-2.5866,-2.5849,-2.5836,-2.5858,-2.5837,-2.5851,-2.5851,-2.5855,-2.5854,-2.5907,-2.5857,-2.5857,-2.5857,-2.5857,0,-2.594,-2.5949,-2.5926,-2.5931,-2.5941,-2.5922,-2.5932,-2.5924,-2.5916,-2.5918,-2.5899,-2.5902,-2.5881,-2.5882,-2.5869,-2.5876,-2.5876,-2.5869,-2.5865,-2.587,-2.5871,-2.5868,-2.5864,-2.5858,-2.5858,-2.5858,-2.5858,0,-2.5984,-2.5969,-2.5976,-2.5962,-2.5958,-2.5966,-2.5953,-2.5957,-2.5947,-2.595,-2.595,-2.5933,-2.5933,-2.5917,-2.5914,-2.5906,-2.5918,-2.5911,-2.592,-2.5918,-2.5932,-2.593,-2.5983,-2.5988,-2.5937,-2.5937,-2.5938,0,-2.6008,-2.6014,-2.6001,-2.6001,-2.5996,-2.5997,-2.5996,-2.5978,-2.5978,-2.5969,-2.5974,-2.5973,-2.597,-2.5971,-2.5958,-2.5956,-2.5948,-2.5967,-2.5947,-2.5952,-2.5946,-2.5946,-2.5946,-2.597,-2.5971,-2.5971,-2.5972,0,-2.6051,-2.6044,-2.6043,-2.604,-2.6039,-2.6035,-2.603,-2.6032,-2.6013,-2.6013,-2.6013,-2.6011,-2.6008,-2.6007,-2.6002,-2.5996,-2.598,-2.5978,-2.5981,-2.5985,-2.5989,-2.5986,-2.593,-2.5977,-2.5976,-2.5976,-2.5975,-2.5975,-2.6085,-2.609,-2.6081,-2.608,-2.6075,-2.6071,-2.6074,-2.6064,-2.6064,-2.606,-2.605,-2.6051,-2.6043,-2.6035,-2.6031,-2.6031,-2.6022,-2.6026,-2.6027,-2.6028,-2.603,-2.5991,-2.6031,-2.6031,-2.6031,-2.603,-2.603,0,-2.6126,-2.612,-2.612,-2.6114,-2.6114,-2.61,-2.6095,-2.6095,-2.6097,-2.6091,-2.6089,-2.6089,-2.6088,-2.6076,-2.6073,-2.6076,-2.6069,-2.6076,-2.6075,-2.6073,-2.604,-2.6037,-2.6082,-2.6082,-2.6082,-2.6082,-2.6082,-2.6082,-2.6148,-2.6155,-2.6146,-2.6151,-2.6144,-2.6146,-2.6143,-2.614,-2.6135,-2.6136,-2.6135,-2.6127,-2.6119,-2.6115,-2.6114,-2.611,-2.611,-2.6119,-2.6113,-2.6081,-2.6076,-2.6071,-2.6068,-2.6119,-2.6119,-2.6146,-2.6146,-2.6147]},{"header":{"parameterUnit":"m.s-1","parameterCategory":1,"la1":30.2991,"la2":30.254,"lo1":-89.0895,"lo2":-89.0444,"dy":0.0017,"dx":0.0017,"nx":28,"ny":28,"refTime":"2025-11-21T03:00:00:Z","depth":0,"parameterNumber":3,"parameterNumberName":"V-component_of_WINDS"},"data":[0,0,0,0,0,0,0,0,0,0,0,0,0,0,0,0,0,0,0,0,0,0,0,0,0,0,0,0,0,0,0,0,0,0,0,0,0,0,0,0,0,0,0,0,0,0,0,0,0,0,0,0,0,0,0,0,0,0,3.096,3.0961,0,3.1107,3.1109,3.111,3.1146,3.1145,3.1144,3.1143,3.1293,3.1298,3.1303,0,0,0,0,0,0,0,0,0,0,0,0,0,3.0711,3.0715,3.0959,3.0961,3.0963,3.1107,3.1109,3.1111,3.1147,3.1145,3.1144,3.1143,3.1292,3.1297,3.1303,0,0,0,0,0,0,0,0,0,0,0,0,0,3.0834,3.0716,3.0959,3.0998,3.1003,3.1106,3.1109,3.1111,3.1147,3.1145,3.1144,3.1143,3.129,3.1297,3.1304,3.1378,0,0,3.1326,3.133,0,0,0,0,0,0,0,0,3.0827,3.0844,3.0991,3.0996,3.1002,3.1107,3.1076,3.1201,3.1147,3.1092,3.1143,3.1142,3.1232,3.1244,3.1275,3.1385,3.1392,3.1327,3.1332,3.1335,3.1337,0,0,0,0,0,0,0,3.0819,3.0837,3.1018,3.0993,3.0999,3.1009,3.1025,3.11,3.1168,3.1097,3.11,3.1117,3.1235,3.1268,3.1279,3.1394,3.1327,3.1333,3.1338,3.1341,3.1577,3.1579,0,0,0,0,0,0,3.0803,3.083,3.1013,3.1022,3.0909,3.1015,3.1033,3.1074,3.1168,3.1181,3.1118,3.1118,3.1256,3.127,3.1284,3.1381,3.1335,3.1341,3.1346,3.1575,3.1578,3.158,0,0,0,0,0,0,3.0798,3.0819,3.1007,3.0927,3.0952,3.1021,3.1067,3.1078,3.1111,3.1184,3.1196,3.1139,3.1256,3.1274,3.1356,3.1386,3.1345,3.1351,3.1573,3.1576,3.1579,3.1572,0,0,0,0,0,0,3.079,3.0817,3.0845,3.0927,3.0956,3.1076,3.1069,3.1082,3.1124,3.1125,3.1207,3.1219,3.1256,3.1345,3.1363,3.1395,3.1357,3.1571,3.1574,3.1578,3.1569,3.1574,3.1578,0,0,0,0,0,3.0781,3.0836,3.0846,3.0868,3.0992,3.1077,3.1094,3.1135,3.1126,3.1156,3.1203,3.1216,3.138,3.1353,3.1374,3.1409,3.1569,3.1573,3.1578,3.1568,3.1573,3.1577,0,0,0,0,0,0,3.0754,3.0847,3.086,3.0942,3.1002,3.1083,3.1121,3.1139,3.1202,3.12,3.1249,3.1267,3.1347,3.1386,3.1354,3.1488,3.1474,3.1483,3.146,3.1465,3.1469,3.1459,3.1363,0,0,0,0,0,3.0758,3.0819,3.0897,3.0962,3.0992,3.1052,3.109,3.1117,3.1181,3.1206,3.1259,3.132,3.1385,3.1427,3.1491,3.1575,3.1595,3.161,3.1614,3.1617,3.1624,3.1676,3.1684,3.1594,3.1594,3.1594,0,0,3.0766,3.0824,3.0859,3.0959,3.1008,3.1071,3.1072,3.1138,3.1186,3.1215,3.1297,3.1338,3.141,3.1494,3.1534,3.1529,3.1654,3.1622,3.1624,3.163,3.1681,3.1689,3.1697,3.1597,3.1596,3.1596,0,0,3.0813,3.0862,3.0924,3.0975,3.105,3.109,3.1105,3.1185,3.1214,3.1297,3.1322,3.1379,3.149,3.1541,3.1582,3.1653,3.1669,3.1673,3.1694,3.1744,3.1751,3.1757,3.1786,3.1795,3.1679,3.1679,3.1679,0,3.0814,3.0909,3.0954,3.102,3.1064,3.1096,3.116,3.1206,3.1298,3.1329,3.1322,3.1465,3.1515,3.1614,3.1632,3.1662,3.1683,3.1664,3.1746,3.1753,3.176,3.1788,3.1798,3.1679,3.1679,3.1679,3.1679,0,3.0908,3.0974,3.1015,3.1106,3.1154,3.1219,3.1274,3.1319,3.1343,3.1384,3.147,3.1532,3.1611,3.1636,3.1659,3.1739,3.1735,3.1736,3.1724,3.1768,3.1795,3.1806,3.168,3.168,3.168,3.168,0,0,3.094,3.1057,3.1072,3.1115,3.1202,3.1255,3.1322,3.1401,3.1439,3.1502,3.1561,3.1656,3.166,3.1706,3.1736,3.1779,3.1836,3.1776,3.1779,3.1788,3.1932,3.1932,3.1943,3.1847,3.1849,3.1851,3.1927,0,3.1001,3.1122,3.1166,3.1267,3.1331,3.1364,3.1423,3.1484,3.1525,3.1586,3.1631,3.1699,3.1697,3.1726,3.177,3.182,3.1866,3.1814,3.1904,3.1907,3.1887,3.1957,3.1956,3.2025,3.1938,3.194,3.1941,0,3.1086,3.1153,3.1261,3.1344,3.1372,3.1425,3.1503,3.156,3.163,3.1658,3.1711,3.1739,3.1812,3.1795,3.1899,3.1863,3.1903,3.1933,3.1937,3.1948,3.1928,3.1972,3.2048,3.2059,3.1957,3.1956,3.1955,0,3.1103,3.1219,3.13,3.1336,3.1434,3.1471,3.1513,3.1582,3.1628,3.1696,3.1727,3.1802,3.1844,3.1902,3.195,3.1932,3.2051,3.2036,3.2077,3.2076,3.2101,3.2099,3.2186,3.2123,3.2123,3.2122,3.2122,0,3.1167,3.1232,3.131,3.1359,3.1435,3.1485,3.1558,3.1603,3.1665,3.1725,3.1757,3.1813,3.1872,3.1936,3.1974,3.2057,3.2074,3.21,3.2109,3.2098,3.2095,3.2126,3.2123,3.2125,3.2125,3.2124,3.2124,0,3.1198,3.1252,3.1343,3.143,3.1453,3.1505,3.158,3.163,3.1674,3.175,3.1771,3.184,3.1917,3.1971,3.2069,3.2095,3.2186,3.2193,3.2162,3.2167,3.2206,3.2203,3.2317,3.2337,3.2258,3.2258,3.2259,0,3.1235,3.1287,3.138,3.1424,3.1467,3.1535,3.1584,3.1636,3.1685,3.1772,3.1812,3.1892,3.1959,3.2082,3.2141,3.2218,3.223,3.2265,3.2241,3.223,3.2234,3.2231,3.2238,3.2269,3.2269,3.227,3.227,0,3.1298,3.1324,3.1391,3.147,3.1527,3.1591,3.1655,3.1689,3.1753,3.1806,3.1887,3.1939,3.2043,3.2123,3.2206,3.2251,3.2273,3.2277,3.2291,3.2281,3.2262,3.2276,3.2174,3.2274,3.2274,3.2274,3.2273,3.2273,3.1336,3.1385,3.1459,3.1535,3.159,3.165,3.1703,3.1755,3.1823,3.1912,3.1939,3.2024,3.2097,3.2211,3.2258,3.2326,3.2323,3.2342,3.2348,3.2352,3.2354,3.225,3.2341,3.2341,3.2341,3.2341,3.234,0,3.1403,3.1453,3.1522,3.1613,3.1673,3.1689,3.1762,3.1812,3.1886,3.1953,3.2019,3.2114,3.2193,3.226,3.2342,3.2384,3.2396,3.2404,3.2402,3.2413,3.235,3.2331,3.2393,3.2393,3.2393,3.2393,3.2393,3.2393,3.1444,3.1529,3.1564,3.1678,3.1728,3.1812,3.1853,3.191,3.1964,3.2069,3.2135,3.2179,3.2246,3.2334,3.2409,3.2426,3.2456,3.2462,3.2483,3.2423,3.2417,3.2411,3.2394,3.2468,3.2468,3.254,3.2541,3.2541]}]]